Terug naar catalogus

STARLINK-32287

ActiefCommunicatieVLEO
NORAD 60358·PAYLOAD·🇺🇸 United States

Gelanceerd Aug 4, 2024 vanaf Vandenberg Space Force Base

Loading…

Volgende Passages (komende 24 uur)

TLE

VersSource: CelesTrak SupGP

Epoch: Sep 14, 2026, 20:45 UTC

1 60358C 24138D   26257.86506944 -.00076296  00000+0 -22524-2 0  2579
2 60358  53.1569 149.9959 0001143  93.4858 282.0690 15.34453257    12

Volg STARLINK-32287 in realtime met AllMySat

Download on the App Store